C/2020 S4 ( PanSTARRS )

Japanese version
Home page
Updated on October 6, 2020

---------------------------------------------------------------------

* Profile

Discovery Date September 16, 2020
Magnitude 21.3 mag
Discoverer Pan-STARRS 1 telescope (Haleakala)

* Orbital Elements

T 2023 Feb. 8.60120 TT                                  Rudenko                 
q   3.3667523            (2000.0)            P               Q                  
                   Peri.   21.18749     -0.73126372     -0.60669609             
                   Node   117.55239     +0.56430523     -0.79483212             
e   1.0            Incl.   20.58533     +0.38316182     +0.01271809             
From 64 observations 2020 Sept. 16-27.                                          

* Finding Charts

* Magnitudes Graph

        m1 = 7.0 + 5 log d + 10.0 log r

---------------------------------------------------------------------

The orbital elements are published on M.P.E.C. 2020-S239.
The charts are made with StellaNavigator Ver.10 (AstroArts).
The magnitudes graphs are made with Comet for Windows.

---------------------------------------------------------------------

Copyright(C) Seiichi Yoshida (comet@aerith.net). All rights reserved.